Weather in Moscow

Russia / Moscow Oblast     55˚45′20″N   37˚37′02″E
temp.,
°C
wind,
m/s
gust,
m/s
humid.,
%
clouds,
%
prec.,
mm/h
давл.,
hPa
HPBL,
m
27 november, fri
fri2700:00+2˚ssw41097100 0.0 1013446
03:00+2˚sw3995100 0.0 1012416
06:00+1˚sw3893100 0.0 1010434
09:00sw3691100 0.0 1010444
12:00ssw3696100 0.1 1010366
15:00ssw3797100 0.3 1010399
18:00s4894100 0.1 1010480
21:00ssw3798100 0.3 1011462
28 november, sat
sat2800:00sse3697100 0.3 1013297
03:00+1˚sse259999 0.6 1015194
06:00+1˚sse26100100 0.4 1016222
09:00+1˚sse25100100 0.6 1018198
12:00+1˚sse3598100 0.1 1020305
15:00+1˚sse2598100 0.2 1022358
18:00+1˚ese2598100 0.1 1023258
21:00+1˚ese3597100 0.1 1025301
29 november, sun
sun2900:00+1˚e3594100 0.0 1026276
03:00e3597100 0.1 1027285
06:00+1˚ene4998100 1.3 1026346
09:00+3˚se51297100 2.3 1027499
12:00+2˚se61289100 0.1 1028644
15:00+1˚se71291100 0.1 1028885
18:00+3˚se61391100 0.1 1028827
21:00+3˚se71388100 0.1 1028916
30 november, mon
mon3000:00+3˚se71387100 0.1 1028852
03:00+2˚se71387100 0.3 1028776
06:00+1˚se71484100 0.1 1028682
09:00+1˚se71384100 0.1 1029712
12:00sse61291100 0.1 1029663
15:00+1˚sse61195100 0.3 1029664
18:00sse61196100 0.8 1029522
21:00sse61296100 1.9 1030633
1 december, tue
tue100:00s51197100 1.1 1030637
03:00sse5997100 2.1 1030519
06:00+1˚sw2498100 1.0 1030249
09:00+1˚ssw2398100 1.9 1030163
12:00+1˚s4797100 0.7 1030344
15:00sse4796100 0.9 1030391
18:00sse4894100 0.6 1030453
21:00−1˚sse4883100 0.8 1030507